Temperature
21 22 22 23 24 25 25 26 26 27 27 27 28 28 29 30 29 30 29 29 28 27 27 26 24 23 22 21 20 20 19 19 19 18 18 17 17 16 16 16 16 16 15 15
21 22 23 24 24 24 24 24 25 26 26 26 27 28 29 29 29 28 28 27 27 26 26 25 24 23 22 21 20 20 19 19 19 18 17 17 16 16 16 16 15 15 15 14
22 23 24 23 22 22 23 24 25 25 26 26 26 27 28 29 28 27 26 25 25 24 24 24 24 23 22 21 20 19 19 18 18 17 17 16 16 16 15 15 14 14 14 13
22 23 23 22 22 23 23 24 25 25 25 26 26 27 29 28 28 27 26 24 23 22 22 23 23 22 22 21 20 19 18 18 17 17 17 16 16 16 15 15 14 14 13 13
22 23 22 22 23 24 24 25 24 24 24 25 25 26 28 28 27 26 24 22 20 19 20 20 21 21 21 21 20 19 18 17 17 17 16 16 16 16 15 15 14 13 12 12
23 24 24 24 24 24 25 24 24 24 25 24 25 26 27 28 26 25 22 19 17 17 18 18 18 18 18 18 18 18 17 17 16 16 16 15 15 15 15 14 13 12 12 12
22 23 24 24 24 24 24 23 23 23 23 24 26 25 27 24 22 21 20 18 16 15 16 16 16 16 16 16 16 16 16 16 15 15 15 15 14 14 14 13 13 12 11 11
22 22 23 24 24 24 23 23 23 23 24 25 25 25 25 22 20 18 17 16 15 14 14 14 14 15 15 15 15 15 15 15 15 14 14 14 13 13 13 12 12 11 11 10
22 23 24 24 25 25 24 24 25 24 24 25 26 25 23 21 19 18 17 15 14 14 13 14 14 14 14 14 14 14 14 14 14 14 13 13 13 12 12 11 11 10 9 9
22 22 24 24 24 24 25 25 24 23 23 23 25 25 25 22 19 18 16 15 13 13 13 13 13 13 13 13 13 14 14 13 13 13 12 12 12 11 11 10 10 9 9 8
21 21 23 23 23 23 23 24 24 24 24 24 24 25 23 22 19 17 15 13 12 12 12 12 12 13 13 13 13 13 13 12 12 12 12 12 11 11 10 10 9 8 8 8
20 21 22 23 24 24 24 24 24 23 23 24 24 23 20 20 18 15 13 12 12 12 12 12 12 12 12 12 12 12 12 12 11 11 11 11 10 10 9 9 8 8 7 7
19 20 21 22 22 23 23 23 23 23 23 23 24 22 18 17 15 13 12 11 11 11 11 11 11 11 11 11 11 11 11 11 10 10 10 10 9 9 8 8 7 7 6 6
18 20 20 21 21 22 22 22 22 23 23 23 23 21 17 16 14 12 11 11 11 10 10 10 10 10 10 10 10 10 10 9 9 9 9 8 8 7 7 6 6 6 5 5
19 20 19 20 20 21 21 21 22 22 22 23 22 21 18 16 15 12 11 10 10 10 10 10 9 9 9 9 9 9 9 8 8 8 8 7 7 6 6 6 5 5 5 4
18 19 19 19 20 20 20 20 20 20 21 21 21 19 18 16 14 12 11 11 10 9 9 9 9 9 8 8 8 8 8 7 7 7 6 6 6 6 5 5 4 4 4 4
18 18 18 19 19 19 19 18 19 19 19 19 19 18 17 15 13 12 11 11 10 9 8 8 8 8 8 7 7 7 7 6 6 6 5 5 5 5 4 4 4 3 3 2
17 17 18 18 18 17 17 17 17 17 17 17 17 16 15 12 9 9 10 10 9 8 8 8 7 7 7 7 6 6 6 5 5 5 4 4 4 4 3 3 3 2 2 2
16 17 17 17 17 18 17 16 16 16 16 15 14 13 11 10 10 8 8 8 8 8 7 7 7 7 6 6 6 5 5 5 4 4 4 4 3 3 3 3 2 2 2 1
17 16 17 16 16 15 15 16 15 16 15 14 14 13 12 12 12 8 7 7 7 7 7 6 6 6 5 5 5 5 4 4 4 3 3 3 3 3 2 2 2 1 1 1
16 16 16 16 15 15 14 15 16 15 13 13 13 12 12 11 9 7 6 6 6 6 6 5 5 5 5 5 4 4 4 3 3 3 3 3 3 2 2 1 1 1 1 1
15 15 15 15 14 13 13 15 14 12 12 12 12 11 9 7 6 6 5 5 5 5 5 5 5 4 4 4 4 4 3 3 3 3 3 3 2 3 2 1 1 1 1 1
15 14 15 14 13 12 12 12 11 12 12 12 11 9 8 6 5 5 5 5 5 4 4 4 4 4 4 4 4 4 3 3 3 3 3 3 2 2 2 2 2 2 1 1
15 14 14 14 14 13 12 12 11 11 11 11 10 9 8 6 5 5 5 4 4 4 4 4 4 4 4 4 4 4 4 4 4 3 3 3 3 2 2 2 2 2 2 1
14 14 14 14 14 13 12 11 10 10 10 10 9 9 7 6 5 5 4 4 4 4 4 4 5 5 5 4 4 4 4 4 3 3 3 3 3 3 2 2 2 2 1 0
14 14 14 14 12 12 11 9 9 9 9 9 8 7 7 6 5 5 4 4 4 5 5 5 5 5 5 5 4 4 4 4 3 3 3 4 3 3 3 3 2 1 1 1
Wind_Speed
14 14 15 16 18 10 7 12 13 11 5 8 12 12 10 6 6 7 6 6 6 8 9 11 15 17 17 17 17 17 17 16 14 11 11 9 6 5 4 4 6 6 6 7
13 18 16 13 15 15 11 10 11 9 5 7 11 13 12 9 7 4 4 4 5 7 7 7 11 15 18 18 18 17 17 16 15 12 9 7 7 6 5 5 5 6 7 7
19 9 13 13 15 18 17 15 13 10 7 9 10 15 15 11 7 4 1 3 5 8 9 7 8 12 15 17 18 16 16 16 15 13 10 10 8 5 4 5 3 5 7 7
16 8 11 15 16 17 16 15 13 11 11 12 9 15 15 12 11 5 0 5 8 9 9 7 5 7 11 13 14 15 15 14 14 14 13 13 9 7 6 5 5 6 8 8
12 13 13 15 16 17 12 11 12 11 12 12 11 12 14 12 13 5 4 7 10 10 8 7 4 1 3 6 9 11 13 13 14 13 14 13 10 8 8 9 10 8 7 9
11 10 13 13 13 15 9 8 8 10 11 15 15 13 13 9 6 2 5 8 10 9 8 8 9 9 8 8 10 12 14 13 13 12 11 12 13 12 12 12 11 9 7 7
12 12 11 10 13 14 13 11 9 11 11 12 11 11 6 9 6 5 6 8 9 9 9 10 11 12 11 12 12 13 14 13 12 11 10 11 12 13 13 12 12 11 9 8
12 12 15 14 15 13 17 17 11 8 11 10 10 10 7 9 8 7 7 9 10 10 11 12 12 12 12 13 13 13 14 13 12 11 11 10 10 9 10 12 12 11 9 9
8 7 9 13 16 16 14 16 16 11 9 8 9 7 8 8 8 8 9 10 10 10 11 11 12 12 12 13 13 13 14 13 12 12 12 11 11 12 13 14 13 11 10 10
4 5 6 7 11 15 16 13 11 13 12 13 12 13 11 14 10 9 9 9 9 10 10 11 11 12 12 12 13 14 14 14 13 13 12 11 13 14 14 13 13 12 11 10
5 6 4 7 10 13 14 14 13 13 13 13 13 7 4 11 11 10 10 9 9 9 10 10 10 11 12 13 13 13 14 14 13 13 14 14 14 14 14 13 13 12 11 10
2 4 5 5 2 3 12 13 15 13 13 12 12 2 6 9 12 12 11 9 9 10 10 11 11 12 12 13 13 14 13 14 14 14 14 14 14 14 14 13 13 12 11 9
4 3 5 7 7 5 5 6 8 10 10 11 14 4 9 12 13 12 11 10 9 10 11 11 11 12 12 12 13 13 14 14 14 15 15 15 15 15 14 13 13 12 11 10
3 2 4 4 1 3 4 4 5 9 11 11 9 6 11 12 12 11 11 11 10 10 10 11 11 11 11 12 12 13 13 13 14 15 15 15 14 14 14 13 12 11 10 9
5 0 2 3 4 3 3 2 0 2 4 5 2 6 11 12 12 12 11 12 12 11 11 11 10 10 11 11 12 12 13 13 13 14 15 14 14 13 12 12 11 10 8 7
5 2 2 3 1 1 1 3 3 3 3 1 4 4 9 12 12 11 11 12 12 11 11 10 10 11 11 11 11 11 12 12 12 14 13 13 12 12 11 10 9 8 6 5
4 3 4 6 4 6 5 3 5 3 3 3 2 3 11 11 10 9 9 10 11 11 11 10 10 10 10 9 10 11 11 11 12 12 12 11 11 10 9 8 7 6 5 4
5 4 4 5 5 9 2 5 5 4 4 6 4 7 10 13 13 12 9 10 11 11 11 10 10 10 10 10 10 11 11 11 12 11 10 9 9 9 7 7 6 5 3 3
4 4 4 5 7 5 4 5 6 5 2 6 7 11 12 14 13 11 11 11 11 11 11 10 10 10 10 10 11 12 11 11 11 10 9 8 7 7 6 6 5 4 4 3
1 3 5 5 6 3 4 8 6 5 1 6 7 9 8 6 4 5 7 10 11 11 10 11 10 11 10 10 10 11 11 11 10 9 8 7 7 6 6 6 5 4 3 2
3 3 4 5 4 2 8 9 5 2 3 6 8 9 9 8 9 9 9 10 11 11 11 11 11 10 9 9 10 11 11 10 9 9 8 8 7 7 6 5 4 3 3 3
4 4 3 4 3 2 11 6 5 5 5 8 10 11 14 14 13 12 11 11 11 11 11 11 10 10 9 9 10 10 9 9 9 9 9 8 6 6 6 5 4 3 2 1
2 4 4 4 4 4 6 7 6 4 6 8 9 12 15 15 13 12 12 11 11 11 11 10 11 10 9 8 9 9 9 8 8 8 7 7 6 5 4 3 2 2 2 4
1 1 3 2 3 4 5 6 7 7 7 7 10 12 13 15 14 13 12 12 11 11 10 9 10 10 8 7 7 7 7 6 6 6 5 4 4 3 3 1 2 3 4 5
3 2 3 4 1 1 4 6 6 5 6 7 9 10 13 15 15 14 13 13 12 10 9 9 9 9 8 7 6 6 5 4 4 4 3 2 2 2 1 1 3 4 5 6
3 4 5 3 4 3 3 5 5 3 3 6 10 12 13 13 15 15 13 12 11 11 10 9 9 9 8 7 6 5 4 3 3 2 2 1 1 1 1 2 2 4 2 5
Wind_Direction
187 202 208 205 214 232 213 214 208 206 188 233 231 236 236 237 247 243 241 242 246 251 249 229 216 213 208 202 199 197 196 188 184 180 175 170 160 123 89 73 78 93 105 123
190 217 218 214 211 219 217 214 211 210 212 251 245 248 246 242 235 243 263 277 293 300 290 256 228 214 210 206 202 197 195 186 183 177 169 160 129 111 108 92 87 100 114 129
208 217 206 203 201 209 218 224 224 228 219 234 254 247 234 224 213 209 253 326 326 324 316 295 250 227 215 208 203 198 191 183 177 160 141 127 122 113 110 116 116 118 131 144
220 200 188 199 203 204 212 216 228 235 243 235 220 247 216 206 205 196 7 354 345 339 330 321 285 230 217 209 199 192 183 173 163 154 149 148 145 138 150 149 145 138 130 126
212 206 197 204 205 207 215 203 218 231 239 251 226 244 234 191 205 185 40 13 5 358 354 360 9 50 177 183 181 172 156 149 149 147 147 146 146 144 144 140 136 124 108 101
213 204 212 214 208 207 204 191 210 230 236 236 229 231 232 194 185 114 43 29 21 18 31 45 56 69 82 100 115 121 124 125 131 137 142 144 145 144 142 140 132 119 106 101
205 205 210 216 202 197 207 210 211 212 216 231 203 219 214 104 86 64 50 46 44 42 50 58 64 71 79 88 99 109 115 117 121 123 124 131 137 143 143 138 127 122 117 115
203 208 206 211 214 198 207 217 227 226 218 208 181 219 141 109 100 88 78 72 66 59 59 61 63 69 77 84 92 102 107 108 109 111 113 117 121 123 122 122 124 124 122 120
209 209 190 210 217 221 207 219 234 256 263 242 199 168 129 135 123 105 93 82 71 66 63 63 63 67 72 78 83 91 96 96 98 101 104 107 109 113 117 119 121 120 121 123
273 246 208 200 207 219 230 222 220 230 235 233 225 212 198 170 151 125 103 90 81 74 68 63 62 65 68 72 77 81 87 91 95 99 101 103 106 112 116 117 115 116 117 117
264 253 213 188 205 200 206 214 223 231 242 244 239 214 87 150 145 129 107 93 85 78 71 67 65 66 70 74 78 82 86 88 90 94 97 100 103 106 107 109 111 112 113 116
330 265 237 203 182 231 209 218 219 231 233 242 258 158 88 121 127 122 110 96 86 81 76 74 75 76 77 79 82 84 88 90 93 96 97 98 102 104 105 105 106 107 106 105
333 275 226 186 180 176 191 211 227 237 253 247 248 182 113 118 117 116 112 102 93 87 83 81 79 78 79 82 84 86 89 93 97 99 99 99 101 102 103 104 104 103 101 97
297 317 301 286 94 157 179 184 207 229 239 240 246 154 146 141 132 125 117 109 101 94 90 87 85 83 83 84 87 90 91 93 97 99 99 99 99 100 100 98 95 94 94 95
337 346 68 70 81 104 107 80 117 233 274 263 196 157 157 151 139 130 123 118 110 102 96 92 90 90 89 89 88 90 93 95 99 100 98 97 96 95 94 93 92 92 94 99
3 311 229 201 188 263 137 50 47 44 33 77 133 111 122 128 124 124 125 122 114 109 105 102 99 96 93 94 97 98 99 101 103 102 101 100 98 94 93 93 93 95 97 101
344 314 263 247 260 270 235 14 354 -0 25 5 328 109 135 128 111 106 114 117 115 112 109 104 101 99 100 103 108 108 108 106 104 103 102 102 102 100 101 105 106 108 110 103
323 308 272 261 248 249 74 41 6 344 17 11 51 103 114 102 84 60 64 96 102 105 104 102 103 103 104 105 106 109 109 108 106 104 104 108 112 114 118 117 114 112 100 84
349 307 283 270 259 246 114 33 358 337 28 46 91 99 106 115 99 60 46 71 88 96 100 101 104 107 108 110 113 114 112 112 112 112 115 120 123 123 122 114 106 94 87 78
1 296 275 270 270 266 40 6 338 290 96 65 104 114 127 152 127 83 67 83 92 96 100 103 106 107 106 110 116 116 114 112 113 117 117 115 112 109 104 98 91 86 81 65
320 307 290 282 269 68 18 340 315 302 49 75 94 91 79 69 83 106 100 94 97 101 103 105 104 101 102 109 113 110 111 116 120 119 112 106 102 98 95 93 86 79 66 48
330 324 330 323 294 44 10 13 34 44 68 90 92 95 99 104 105 106 105 105 105 104 103 102 100 99 100 107 113 116 120 124 124 118 109 102 97 94 99 98 90 69 31 35
325 353 345 3 28 50 40 54 55 58 77 85 101 112 119 120 119 118 114 111 109 107 105 106 109 110 117 127 131 126 128 131 128 118 107 103 102 98 97 95 86 63 20 8
184 315 298 316 82 69 66 65 53 54 67 84 109 124 127 126 127 123 118 115 112 110 113 118 120 120 120 125 123 122 128 133 130 121 115 115 115 121 110 51 23 14 11 7
297 274 275 276 288 153 96 55 37 49 75 94 107 117 125 129 127 123 121 120 119 121 124 123 117 111 108 107 105 111 122 135 134 130 127 127 114 85 86 51 25 3 31 28
246 261 272 327 37 341 11 20 10 22 89 111 117 115 120 124 124 123 122 124 126 123 118 111 105 99 95 93 89 88 99 119 132 146 148 144 114 62 327 326 154 122 50 116
Height
1497 1497 1494 1492 1492 1487 1487 1488 1488 1486 1487 1489 1485 1483 1480 1482 1484 1483 1484 1486 1488 1490 1493 1495 1497 1500 1504 1507 1509 1512 1516 1520 1524 1528 1531 1534 1537 1540 1543 1544 1547 1549 1551 1553
1494 1491 1486 1487 1490 1492 1493 1493 1490 1488 1489 1489 1485 1483 1479 1480 1482 1484 1484 1486 1487 1488 1490 1491 1493 1495 1498 1501 1504 1507 1511 1516 1519 1524 1527 1531 1533 1535 1537 1540 1542 1544 1545 1547
1485 1480 1482 1488 1491 1493 1492 1492 1489 1489 1485 1487 1489 1485 1478 1478 1481 1484 1485 1486 1487 1487 1487 1487 1488 1490 1493 1496 1499 1503 1507 1511 1515 1519 1522 1525 1528 1531 1533 1535 1538 1540 1541 1543
1481 1479 1483 1486 1487 1487 1490 1486 1487 1489 1490 1482 1485 1485 1470 1473 1477 1481 1484 1486 1486 1486 1485 1484 1484 1485 1488 1492 1496 1500 1503 1507 1511 1515 1518 1520 1523 1526 1530 1532 1535 1537 1538 1540
1478 1477 1481 1483 1481 1482 1480 1479 1484 1485 1486 1486 1483 1487 1468 1469 1475 1478 1484 1487 1487 1486 1485 1483 1483 1483 1485 1488 1492 1496 1500 1504 1508 1511 1514 1517 1520 1523 1525 1528 1530 1534 1536 1538
1472 1474 1475 1474 1475 1478 1477 1482 1484 1484 1483 1492 1480 1482 1473 1465 1473 1479 1485 1489 1489 1488 1486 1484 1483 1482 1483 1486 1489 1493 1497 1501 1505 1509 1512 1515 1518 1520 1522 1524 1527 1530 1534 1536
1474 1472 1472 1472 1473 1476 1478 1484 1489 1489 1488 1482 1468 1477 1469 1475 1481 1486 1489 1491 1491 1490 1488 1486 1485 1484 1485 1487 1489 1492 1496 1500 1504 1508 1511 1514 1517 1519 1521 1523 1526 1529 1532 1536
1474 1472 1467 1468 1469 1471 1475 1477 1483 1484 1479 1470 1473 1472 1467 1478 1486 1489 1491 1493 1493 1492 1491 1489 1488 1488 1488 1489 1491 1494 1497 1501 1505 1508 1511 1514 1516 1519 1521 1523 1526 1529 1532 1536
1465 1466 1459 1461 1463 1464 1469 1470 1465 1471 1469 1470 1463 1465 1475 1481 1485 1490 1492 1494 1495 1495 1494 1493 1492 1492 1492 1493 1495 1497 1500 1503 1506 1509 1511 1514 1516 1519 1521 1524 1527 1530 1533 1537
1464 1467 1458 1458 1460 1461 1460 1461 1467 1474 1481 1481 1468 1465 1463 1476 1483 1489 1493 1496 1497 1497 1497 1496 1496 1496 1496 1497 1499 1500 1503 1505 1508 1510 1512 1515 1517 1520 1523 1526 1529 1532 1535 1538
1467 1469 1462 1459 1461 1460 1463 1465 1465 1464 1462 1470 1473 1464 1463 1470 1481 1489 1495 1498 1499 1499 1499 1499 1499 1499 1500 1501 1502 1504 1506 1508 1510 1512 1515 1517 1520 1522 1525 1528 1531 1534 1537 1540
1470 1466 1463 1459 1456 1453 1455 1457 1461 1468 1466 1463 1464 1471 1473 1477 1484 1491 1496 1499 1501 1501 1502 1502 1503 1503 1504 1505 1506 1508 1510 1511 1513 1515 1518 1520 1522 1525 1527 1530 1533 1536 1538 1541
1473 1471 1469 1466 1464 1459 1458 1459 1458 1459 1461 1461 1464 1473 1479 1484 1490 1494 1497 1500 1502 1503 1504 1505 1506 1507 1508 1509 1511 1512 1514 1515 1517 1519 1521 1523 1525 1528 1530 1533 1535 1538 1540 1541
1477 1471 1470 1469 1463 1460 1462 1460 1459 1459 1458 1459 1459 1469 1481 1486 1491 1496 1499 1501 1503 1505 1507 1508 1509 1510 1512 1513 1515 1516 1517 1519 1520 1522 1524 1526 1528 1530 1533 1535 1537 1539 1540 1542
1476 1472 1471 1469 1466 1465 1465 1465 1462 1461 1459 1459 1461 1466 1477 1484 1491 1496 1499 1502 1504 1507 1509 1510 1512 1513 1515 1517 1518 1520 1521 1522 1524 1525 1527 1529 1531 1533 1535 1537 1538 1540 1541 1541
1479 1476 1474 1474 1471 1469 1470 1469 1468 1468 1466 1465 1466 1474 1479 1486 1492 1497 1500 1503 1506 1508 1511 1513 1514 1516 1518 1519 1521 1523 1524 1526 1527 1528 1530 1531 1533 1535 1537 1538 1539 1540 1541 1541
1479 1480 1478 1475 1473 1473 1475 1476 1475 1473 1472 1473 1472 1477 1483 1490 1495 1499 1502 1504 1507 1510 1512 1514 1516 1517 1519 1521 1523 1525 1527 1528 1530 1531 1532 1534 1535 1536 1538 1539 1539 1540 1541 1541
1486 1481 1478 1475 1479 1488 1483 1482 1482 1480 1481 1481 1480 1483 1488 1495 1500 1503 1506 1507 1509 1511 1513 1515 1517 1519 1521 1523 1525 1527 1528 1530 1531 1533 1534 1535 1537 1538 1539 1540 1540 1541 1541 1541
1489 1485 1480 1479 1479 1477 1483 1485 1485 1484 1485 1488 1488 1492 1496 1499 1502 1508 1509 1510 1511 1513 1514 1517 1519 1521 1523 1525 1527 1528 1530 1531 1533 1534 1536 1537 1539 1539 1540 1541 1541 1541 1541 1540
1488 1486 1484 1483 1488 1489 1491 1489 1489 1488 1490 1493 1493 1495 1498 1500 1501 1513 1514 1513 1514 1515 1517 1519 1521 1523 1525 1527 1529 1530 1532 1533 1535 1537 1538 1540 1540 1541 1541 1541 1541 1541 1540 1540
1488 1486 1486 1486 1488 1488 1494 1492 1488 1493 1499 1498 1498 1500 1501 1504 1508 1515 1516 1517 1518 1519 1520 1522 1524 1526 1528 1529 1531 1532 1533 1535 1537 1539 1540 1541 1541 1541 1541 1541 1541 1541 1541 1540
1493 1492 1490 1490 1492 1499 1498 1493 1497 1502 1501 1501 1502 1504 1506 1509 1512 1515 1517 1519 1521 1522 1524 1525 1527 1528 1530 1531 1533 1534 1536 1538 1540 1541 1541 1542 1542 1543 1542 1542 1541 1541 1541 1540
1497 1498 1495 1498 1502 1503 1502 1502 1504 1503 1503 1504 1505 1507 1509 1511 1515 1518 1520 1522 1524 1525 1527 1529 1530 1531 1533 1535 1536 1537 1539 1540 1541 1542 1542 1543 1543 1543 1543 1543 1542 1542 1540 1539
1498 1502 1499 1497 1499 1503 1504 1505 1505 1505 1506 1507 1507 1509 1511 1513 1516 1519 1522 1525 1527 1529 1530 1532 1533 1535 1536 1538 1539 1540 1541 1542 1543 1543 1543 1543 1543 1543 1543 1543 1542 1541 1540 1538
1499 1500 1498 1498 1500 1503 1505 1507 1508 1508 1508 1509 1510 1511 1513 1515 1518 1521 1524 1527 1529 1532 1534 1535 1537 1538 1539 1540 1541 1542 1542 1542 1543 1543 1544 1544 1544 1544 1543 1543 1542 1541 1539 1537
1500 1500 1500 1498 1504 1505 1507 1509 1509 1509 1509 1510 1511 1513 1516 1518 1520 1524 1527 1530 1533 1535 1537 1539 1540 1541 1542 1542 1543 1543 1543 1543 1543 1544 1544 1544 1544 1543 1543 1542 1540 1538 1537 1535